Wind_Speed
16 14 15 15 15 14 13 13 13 13 13 13 13 14 13 12 12 12 13 14 15 15 16 15 14 13 13 12 13 13 13 12 11 11 12 11 11 11 10 10 9 10 10 10 11 12 12 13 13 14 15 16 17 19 20 21 21 20 20 20 20 20 20 20 21 21 21 22 22 23 24 24 25 25 25 25 25 24 24 24 23 23 22 22 22
15 14 15 15 13 13 12 12 13 14 13 12 13 13 13 12 12 12 14 14 13 15 16 15 14 13 12 12 12 13 13 12 12 12 12 11 11 10 10 9 9 10 11 12 12 13 13 13 14 15 16 17 19 21 21 20 20 19 19 19 20 20 20 20 21 21 21 22 23 24 24 24 24 24 23 23 23 22 22 22 22 22 21 22 22
14 16 17 16 14 14 13 12 12 13 13 12 12 13 13 13 12 13 16 15 13 15 15 14 13 12 12 12 12 12 12 12 12 11 11 11 11 10 10 9 10 11 12 13 13 13 13 14 15 16 18 19 21 21 20 19 19 19 19 19 20 20 20 20 21 21 22 22 23 23 23 23 23 22 21 21 21 21 21 21 21 21 22 22 23
13 15 16 15 15 14 14 13 12 12 13 12 12 13 14 14 13 13 15 15 14 15 15 14 12 12 13 12 11 12 11 12 12 12 12 12 11 11 11 11 12 12 13 13 13 13 14 15 16 18 20 21 21 20 19 19 19 19 19 20 20 20 20 20 21 21 22 22 22 22 21 21 20 20 19 19 20 20 20 20 21 21 22 24 24
12 13 13 13 13 12 13 14 13 11 12 12 12 13 14 14 13 12 14 15 15 15 14 13 11 12 13 12 11 12 12 13 12 11 12 11 12 12 12 12 13 13 13 13 14 14 15 17 18 19 21 21 20 19 19 19 19 19 19 19 19 19 20 20 20 21 21 21 21 20 20 19 19 18 18 18 18 19 19 20 21 22 23 24 24
12 13 13 13 12 11 11 13 13 11 11 12 11 12 12 13 12 11 13 15 15 14 14 14 12 12 13 12 12 12 12 12 11 10 10 10 11 11 11 12 13 13 14 14 15 16 17 18 19 20 21 20 19 19 19 19 19 19 19 19 19 19 19 20 20 20 20 20 19 18 18 18 17 17 17 18 18 18 19 19 20 21 23 23 24
12 12 13 13 12 11 11 11 12 11 11 11 10 11 11 11 11 11 12 15 15 14 14 15 13 12 13 12 12 12 12 11 11 10 10 9 10 9 10 12 13 14 15 16 16 17 18 19 20 20 20 19 19 19 19 19 19 18 18 18 19 19 19 19 20 20 19 18 18 17 17 17 17 17 17 17 18 18 18 19 20 21 22 23 23
12 12 12 13 12 12 12 11 11 11 11 10 10 11 11 11 11 11 12 14 15 14 14 14 13 13 12 12 11 11 11 11 10 10 10 9 9 8 10 12 13 15 16 17 17 18 19 20 20 20 19 19 19 19 19 18 18 18 18 18 18 18 18 19 19 18 18 17 17 17 17 17 17 17 17 18 18 18 18 19 19 21 22 22 23
12 12 12 13 12 12 12 12 12 12 11 11 11 11 12 12 12 11 11 13 15 13 12 13 13 13 12 11 11 11 11 11 10 10 10 10 10 9 11 13 14 15 17 17 18 19 20 20 20 20 19 19 19 18 18 18 18 18 18 17 17 18 18 18 18 18 17 17 17 17 17 17 17 17 18 18 18 18 18 18 19 20 21 22 22
12 12 12 12 12 13 13 12 13 12 12 12 12 12 12 13 12 11 10 12 14 13 12 12 13 13 12 12 11 11 11 11 11 11 10 11 11 12 13 13 14 15 16 17 20 20 20 20 19 19 19 18 18 18 17 17 18 18 17 17 17 17 17 17 17 17 17 17 17 17 17 17 17 18 18 19 19 19 19 19 18 19 19 21 22
11 11 11 11 12 13 13 13 13 13 13 13 13 12 13 12 12 12 11 11 13 13 13 12 13 13 13 12 12 12 12 12 12 11 12 12 12 14 15 13 14 15 16 19 21 21 20 20 19 18 18 17 17 17 18 18 18 17 16 16 17 17 17 17 17 17 17 17 18 18 18 18 18 19 20 20 21 21 21 20 19 19 19 20 22
10 10 10 11 11 12 13 13 13 13 13 13 13 13 14 13 12 13 13 12 13 13 13 13 14 13 13 13 12 12 12 10 12 14 14 12 12 14 15 13 14 15 17 19 21 21 20 20 18 17 17 17 18 18 18 19 18 17 16 16 17 17 17 16 17 17 18 18 19 19 19 19 20 21 22 23 23 23 23 22 21 20 20 21 22
9 10 10 10 11 12 13 13 13 13 12 13 13 13 14 13 13 13 13 13 13 13 13 14 14 12 13 13 12 14 13 12 15 16 14 12 11 12 11 12 14 15 17 19 20 21 20 18 16 16 17 18 18 19 19 19 18 17 17 17 17 16 16 16 17 18 18 19 20 20 21 22 23 24 25 26 26 26 26 25 24 23 23 23 24
9 10 10 10 10 11 12 12 13 12 12 13 13 13 13 13 13 12 13 12 12 13 13 12 13 12 12 13 13 14 13 13 15 14 13 12 11 10 12 14 14 15 18 19 20 20 19 17 16 17 18 18 19 20 20 20 19 19 18 17 16 15 15 16 17 18 19 20 21 22 23 24 25 26 27 28 29 29 29 28 28 27 27 27 27
9 10 10 10 10 11 11 11 12 11 11 12 12 12 12 12 12 12 12 12 12 13 12 10 12 12 12 12 13 12 12 15 14 8 9 13 11 11 12 13 14 16 18 19 19 19 18 16 16 17 17 18 20 21 21 21 21 20 19 18 16 15 15 16 17 17 19 20 22 23 24 26 26 27 28 29 30 30 30 30 30 30 29 29 29
9 9 9 9 9 9 10 10 11 11 11 11 11 11 11 11 11 11 12 12 12 11 11 11 11 12 11 12 14 15 15 17 15 11 8 9 8 8 9 11 13 15 17 18 17 17 17 16 15 16 17 19 20 20 21 22 23 22 22 20 19 18 17 16 16 17 18 20 22 24 25 26 26 27 28 28 29 30 30 31 31 31 31 32 32
9 9 9 9 8 8 8 9 10 10 10 10 10 10 10 9 10 10 10 10 11 10 10 11 11 11 10 11 13 14 14 14 14 15 13 7 3 5 10 12 11 13 16 16 15 15 16 16 14 15 16 16 18 19 20 22 23 23 23 23 23 22 20 18 17 17 18 20 22 23 24 25 25 26 26 27 28 29 30 31 32 33 34 35 35
8 8 8 8 8 8 7 8 9 9 9 9 9 10 10 9 9 10 9 9 11 11 11 11 11 11 11 10 10 10 10 12 16 16 14 11 7 7 11 12 8 10 14 14 13 13 14 14 13 14 14 14 16 17 18 19 20 21 22 23 24 24 23 21 20 19 18 20 21 22 23 24 24 25 25 26 27 28 30 31 33 34 36 36 36
8 8 8 8 7 7 7 7 7 8 8 8 9 9 10 10 10 9 9 10 11 12 12 12 11 10 10 10 9 9 9 9 12 14 13 13 11 9 9 9 8 9 12 14 13 12 11 12 12 12 12 14 15 14 15 17 18 19 20 21 23 23 23 23 22 21 20 19 20 21 22 23 23 23 24 24 26 27 29 31 33 35 36 37 37
8 8 8 7 7 6 6 6 6 7 8 8 9 9 10 10 10 9 9 10 11 11 10 10 11 9 9 9 9 9 10 9 9 10 14 16 14 10 9 8 8 8 9 12 12 10 8 9 11 10 10 12 12 11 13 15 16 17 19 20 22 23 22 22 23 22 21 19 19 20 21 21 22 22 22 23 24 26 28 30 32 33 35 36 37
8 8 8 7 6 6 6 6 6 6 7 8 9 9 9 10 10 9 9 10 11 11 10 9 8 8 8 8 9 9 9 11 10 9 14 17 16 12 9 9 10 9 10 10 9 9 8 7 8 8 8 9 9 9 11 12 14 16 18 20 22 22 22 21 22 22 21 20 19 19 20 20 21 21 21 22 23 24 26 28 30 31 33 35 37
8 8 7 7 6 6 6 6 6 5 6 7 9 9 9 10 10 10 10 11 12 11 10 9 8 8 8 8 9 9 8 9 10 10 12 14 15 14 10 11 12 11 12 12 10 10 8 6 6 6 6 6 7 8 9 11 13 15 17 19 21 21 21 21 21 22 22 22 21 20 20 20 21 21 21 21 22 23 24 25 27 29 31 33 36
8 8 7 7 7 6 6 6 6 6 6 7 8 9 10 10 10 10 11 12 12 11 10 10 9 8 8 8 9 9 9 9 8 9 9 10 14 15 9 7 11 12 12 11 11 10 8 6 4 4 4 3 5 7 9 11 12 14 16 18 19 20 20 21 21 22 22 23 23 22 22 21 20 20 20 21 21 22 23 24 26 28 29 32 34
8 9 8 7 7 7 7 7 7 6 7 7 7 8 9 10 11 11 11 12 12 12 11 11 10 10 9 10 10 10 11 10 9 9 9 7 9 12 11 9 10 12 11 10 11 10 8 6 4 2 1 1 3 5 7 8 10 13 15 16 17 18 19 20 21 22 23 23 23 23 23 22 21 20 20 20 21 22 23 24 25 27 29 31 33
8 9 8 7 8 7 7 7 7 6 7 7 7 8 8 9 11 12 12 12 12 11 12 12 11 10 10 10 11 12 12 11 9 9 10 9 8 10 12 11 9 11 11 10 11 10 9 7 5 4 2 3 4 5 6 7 9 12 14 14 15 17 18 20 21 22 23 23 23 23 23 23 22 21 20 20 21 22 23 24 26 27 28 30 31
8 8 8 8 8 8 7 7 7 7 7 7 7 8 8 8 10 12 13 13 13 12 12 12 11 10 10 9 8 10 12 13 11 9 10 12 12 11 11 12 13 13 11 11 11 10 10 9 7 6 5 4 5 6 7 8 10 10 11 12 14 16 18 20 21 22 23 23 23 23 23 23 23 22 21 21 21 22 23 24 26 27 28 29 30
8 7 8 9 8 8 7 7 7 7 7 7 8 8 9 9 9 11 13 13 13 13 12 12 11 11 11 10 9 10 11 13 14 13 12 13 13 11 10 11 13 14 13 13 11 10 11 10 8 8 8 7 6 7 8 9 10 11 10 11 14 16 18 20 21 23 23 23 23 22 22 22 23 23 22 22 22 22 23 24 25 27 28 29 30
9 8 8 8 8 8 8 7 7 7 8 8 8 8 8 9 8 9 12 13 12 13 12 12 12 12 11 11 11 11 11 12 13 13 13 12 11 11 11 12 14 15 15 14 13 12 11 11 10 10 9 9 9 8 8 9 11 12 12 13 15 17 19 20 22 23 23 23 23 22 21 21 22 23 23 23 23 23 23 24 25 26 27 28 29
10 9 8 8 8 8 8 8 8 7 7 8 9 8 8 8 8 9 12 12 12 13 13 12 12 12 12 12 12 12 12 12 11 10 10 10 10 12 14 13 13 15 15 14 15 15 14 13 13 12 10 10 11 11 9 9 11 12 14 15 16 17 19 20 21 22 22 22 22 22 21 21 21 22 23 24 24 24 24 25 25 26 27 28 28
10 10 10 9 9 9 9 8 8 7 8 8 8 8 8 8 8 9 10 11 11 12 13 13 13 12 12 12 11 12 12 12 12 12 11 11 11 12 13 13 14 16 16 14 15 18 16 14 15 14 10 10 12 13 11 10 11 13 15 16 17 18 19 20 20 21 21 21 22 22 21 21 21 22 22 23 24 25 25 25 26 26 27 27 28
11 10 10 10 10 10 10 9 9 8 8 8 8 8 8 8 9 9 10 10 10 12 13 13 13 12 12 12 12 12 12 12 12 13 12 11 11 11 12 13 14 16 16 16 17 18 17 16 17 16 13 12 12 13 14 14 13 14 15 17 18 19 19 20 21 21 21 20 20 21 21 21 21 21 22 23 24 25 25 25 26 26 26 27 27
12 11 10 10 10 11 11 10 10 9 8 8 8 8 8 8 9 9 10 10 10 11 13 13 12 12 12 12 12 12 12 12 12 12 12 11 12 12 11 12 13 14 17 18 19 19 17 18 19 17 16 15 14 14 15 16 16 16 17 18 19 20 21 21 22 22 22 21 20 20 21 21 21 21 22 22 24 25 25 26 26 26 26 26 26
13 12 11 10 10 11 12 12 11 11 10 9 9 9 8 8 8 9 9 10 10 11 12 13 13 12 12 12 12 12 12 12 12 12 13 12 12 12 12 12 13 14 16 18 21 21 19 20 20 18 18 18 16 16 16 17 18 18 18 19 20 22 23 23 23 23 23 22 20 20 21 21 22 22 22 23 24 25 25 26 26 26 26 26 26
14 13 12 11 11 11 11 12 12 12 11 11 10 9 9 8 8 9 9 9 10 11 12 13 13 13 12 12 13 13 13 13 13 13 13 13 13 13 13 13 14 15 16 17 20 21 21 21 20 19 19 18 17 18 17 17 18 18 19 20 20 22 24 24 23 22 22 22 21 21 21 22 23 22 22 23 24 25 26 26 26 26 26 25 25
16 15 14 13 12 12 12 12 12 12 12 12 11 10 10 9 9 9 9 9 10 11 12 13 14 14 13 13 13 14 14 14 14 14 14 14 14 14 14 14 15 15 15 16 18 20 21 21 21 20 20 19 18 18 18 18 18 19 20 20 20 21 22 24 24 22 22 22 22 21 21 21 22 23 23 23 24 25 25 26 26 25 25 25 25
17 17 16 15 14 13 13 12 12 13 12 12 11 11 11 10 10 10 9 9 9 10 11 12 13 14 13 13 13 13 14 15 15 15 15 14 14 14 14 14 14 14 14 14 15 17 18 19 19 19 19 19 18 18 19 19 19 20 20 20 21 21 20 22 24 23 22 23 22 21 21 21 21 22 23 24 24 24 25 25 25 25 25 24 24
19 18 17 17 16 15 14 13 12 13 13 13 12 12 12 11 11 11 10 10 9 9 10 11 12 13 13 13 13 13 13 14 14 14 15 14 15 15 14 14 14 14 14 14 14 14 15 15 16 16 17 17 17 18 18 19 19 19 21 21 22 22 21 22 23 23 22 22 22 22 22 21 21 21 22 23 23 23 24 24 24 23 23 23 23
21 20 19 18 17 16 15 14 14 13 14 14 13 13 13 13 12 12 12 11 11 11 10 11 11 11 11 12 12 12 12 12 13 14 14 14 15 15 15 15 15 15 15 14 14 14 14 14 14 15 15 15 16 17 17 18 19 19 20 21 21 22 22 22 24 24 23 22 22 22 22 22 21 21 20 21 21 22 22 23 23 22 22 22 22
23 23 22 20 18 17 16 15 15 15 15 15 15 14 14 14 14 14 13 12 12 12 12 11 11 11 11 11 12 12 12 12 12 13 14 14 14 15 15 16 16 16 16 15 15 15 15 15 15 14 14 15 16 17 17 18 19 19 20 20 20 21 20 21 22 23 23 23 23 21 20 21 21 21 20 20 19 19 20 22 22 21 21 20 20
22 23 23 22 20 19 17 16 16 16 16 16 16 16 15 15 15 14 14 14 13 13 13 13 13 13 13 13 13 13 13 12 13 13 14 15 15 15 15 15 16 17 17 17 16 16 16 16 15 15 15 16 17 17 18 19 19 20 20 21 21 21 20 20 21 22 23 23 22 22 21 21 21 20 20 20 19 19 19 22 22 21 20 19 19
21 21 22 22 22 21 19 18 18 17 17 17 17 17 16 16 16 15 15 15 15 15 14 14 14 15 15 15 15 15 14 14 14 14 15 15 15 15 15 16 16 17 17 17 17 17 17 16 16 16 16 17 17 17 18 19 20 21 21 22 22 22 22 21 21 21 21 21 21 21 22 23 23 22 21 21 20 19 19 20 20 20 19 19 18
24 22 21 22 22 22 20 20 20 19 19 19 18 17 16 16 16 15 15 15 16 17 17 16 17 17 16 16 16 16 16 16 15 16 16 16 16 16 16 17 17 18 18 18 18 18 18 18 17 18 18 18 18 18 19 20 21 22 23 24 25 26 26 24 21 20 20 20 20 18 18 20 23 24 23 23 21 19 16 16 18 18 19 18 17
26 25 23 22 22 22 21 20 19 20 21 21 20 18 17 17 17 17 17 17 16 17 17 18 18 18 18 18 18 18 18 18 17 17 17 17 17 17 18 18 19 19 19 19 19 19 20 20 20 19 20 19 19 19 20 20 22 23 24 26 27 29 29 27 23 19 19 20 21 18 16 17 20 22 22 24 23 19 15 14 16 17 17 17 16
27 26 25 24 23 23 23 22 21 20 20 21 22 20 18 18 19 19 19 19 19 19 18 18 19 19 19 20 20 20 20 20 19 18 18 18 19 19 20 20 21 21 21 21 20 21 21 22 22 21 21 20 20 21 21 22 23 24 25 26 27 28 28 27 24 21 19 20 22 21 17 17 20 21 21 23 24 20 16 14 15 17 17 16 16
31 28 25 25 24 23 23 24 23 21 20 21 22 22 20 19 19 21 21 22 23 22 22 21 20 20 20 20 21 21 21 21 22 22 20 19 20 21 22 22 23 23 23 23 22 22 23 24 24 23 22 22 22 22 23 24 25 26 27 26 26 26 26 26 24 21 20 20 22 23 21 18 20 22 21 23 23 20 17 15 15 17 17 16 16
29 28 26 25 25 24 24 24 24 23 23 22 22 22 22 21 21 21 22 23 25 25 25 25 24 24 23 22 22 22 21 22 23 24 24 22 21 22 23 24 25 24 25 25 25 25 25 25 26 25 24 24 25 25 25 26 27 27 27 26 25 25 24 23 22 21 20 20 22 24 23 20 20 22 21 22 23 21 19 17 16 16 16 16 17
29 29 29 28 27 26 26 26 25 24 24 24 24 22 21 21 22 23 23 24 26 27 27 27 27 27 26 26 25 24 23 22 22 23 26 27 25 23 22 24 26 27 27 27 27 27 28 28 28 28 28 27 28 28 27 28 28 27 26 26 25 25 24 22 22 20 19 19 21 24 24 21 20 21 20 21 24 23 20 18 17 16 16 16 17
31 32 32 30 29 29 29 29 28 28 27 26 26 24 22 21 21 22 23 25 26 27 28 29 29 29 28 28 28 27 25 24 23 22 24 27 29 27 24 23 24 27 29 29 28 28 29 30 30 29 29 29 29 29 28 29 29 28 27 27 25 24 23 23 22 20 19 19 20 24 26 23 21 22 21 21 23 22 19 19 19 17 17 18 18
31 31 31 31 31 31 30 30 31 31 30 29 29 28 27 25 23 23 23 24 26 27 28 29 30 31 31 30 29 29 28 26 25 24 24 25 28 30 29 26 25 27 29 29 29 29 29 29 30 30 29 28 28 28 27 28 27 27 28 27 24 24 25 24 23 21 20 20 20 23 26 24 22 23 23 22 22 22 20 19 19 18 17 18 18
31 31 31 32 32 32 32 32 32 31 29 29 29 29 29 29 29 27 26 25 27 28 28 29 30 32 32 31 30 29 28 27 26 26 27 27 28 29 30 30 29 28 28 28 29 29 29 29 29 29 28 27 27 27 27 27 27 27 28 27 25 25 27 26 25 24 23 21 19 21 26 25 22 23 24 22 22 22 21 20 19 18 17 17 17
34 33 33 34 34 34 34 33 33 32 31 29 29 28 28 28 28 28 28 28 29 29 30 30 31 32 33 33 32 32 31 29 27 27 27 29 30 30 30 32 32 31 29 29 29 29 29 30 30 29 29 28 28 29 29 29 29 29 30 29 27 27 27 26 25 26 26 23 19 21 25 25 23 23 23 24 24 24 24 22 21 20 19 18 18
Wind_Direction
126 125 125 127 121 117 115 111 110 110 110 107 104 106 107 109 112 117 116 108 105 105 100 94 91 86 83 80 79 81 82 82 81 75 70 69 69 69 67 66 67 67 68 69 73 78 82 86 88 89 88 87 88 90 91 92 92 91 89 85 81 77 73 69 65 62 59 56 54 52 50 49 48 47 46 45 43 41 39 37 35 33 31 29 26
126 126 128 129 120 117 116 111 109 109 110 107 107 108 105 105 107 110 111 108 106 106 103 99 96 93 89 85 80 82 84 82 84 79 72 70 67 68 69 69 71 71 73 76 80 86 89 91 91 90 90 90 92 93 94 94 92 89 85 81 77 72 68 64 61 57 54 53 51 49 48 47 46 45 43 42 40 38 36 34 32 29 27 25 22
130 132 136 138 133 127 125 122 114 110 112 110 108 109 105 104 101 101 110 115 112 105 102 100 99 101 94 88 83 82 84 85 88 85 77 74 70 69 73 75 76 77 78 82 87 91 93 93 92 91 93 95 96 96 95 93 90 86 81 76 71 67 63 59 56 53 51 50 49 48 46 45 44 42 40 38 35 34 32 30 28 26 25 23 22
135 136 138 138 135 132 127 123 117 113 115 112 110 110 108 105 102 102 109 112 106 101 101 98 100 103 95 86 83 81 80 82 84 81 76 73 70 70 73 78 79 80 84 88 92 94 94 93 93 95 97 98 97 97 95 91 86 81 76 71 67 63 59 55 52 51 50 49 48 46 44 42 40 38 36 33 32 31 29 28 26 25 25 25 24
135 133 133 132 131 131 125 119 117 116 115 113 112 112 109 107 105 106 108 106 99 96 100 99 97 98 94 87 83 81 76 74 72 71 73 75 74 72 72 76 80 85 90 93 94 94 94 94 96 99 100 100 98 96 92 87 81 76 71 66 62 58 55 53 52 51 50 48 46 44 42 39 36 34 31 29 28 27 26 25 25 26 26 26 25
134 134 133 133 131 130 122 115 116 116 111 111 112 111 111 110 108 108 107 104 98 96 100 99 93 89 90 89 84 82 78 75 73 69 72 75 76 77 75 78 84 89 93 94 95 96 97 99 101 102 102 100 97 92 86 81 75 71 67 62 57 55 53 52 51 50 48 46 44 41 38 34 31 28 26 25 24 24 23 23 24 26 27 26 25
134 133 133 132 130 129 121 114 116 117 114 115 116 111 109 110 111 110 106 104 101 99 97 95 93 88 87 89 86 85 83 81 79 74 71 70 74 80 84 85 87 91 95 96 97 99 101 104 105 104 101 97 92 87 81 76 71 66 61 58 55 53 52 52 51 49 47 44 41 36 32 29 26 23 21 20 19 19 20 21 23 24 26 26 24
127 128 129 129 129 128 124 121 122 123 122 119 117 114 114 114 114 112 106 106 108 106 103 101 99 93 89 89 88 89 88 85 82 79 75 73 72 78 90 92 90 94 98 98 100 102 106 107 105 102 99 94 87 81 77 71 66 62 58 55 53 53 52 51 49 47 44 40 35 31 27 23 20 18 16 15 14 14 15 17 19 22 24 23 22
120 123 125 126 129 128 125 124 123 122 121 119 118 120 120 117 116 115 114 114 113 111 110 107 104 100 95 92 92 92 89 87 87 83 80 80 77 81 94 96 94 98 101 102 106 107 107 106 103 100 95 89 84 78 73 67 62 58 56 55 54 54 52 50 47 43 39 35 30 26 23 20 18 16 14 13 11 11 11 12 14 18 20 19 19
118 121 123 124 126 126 124 122 120 119 121 122 122 121 118 117 117 114 114 116 115 113 111 107 105 103 101 98 95 92 91 91 90 88 89 88 85 90 97 99 98 100 104 109 111 109 106 104 100 96 92 87 82 76 69 63 60 58 56 56 55 53 51 48 44 39 35 31 28 25 22 20 18 17 15 14 12 11 10 9 9 12 14 14 14
120 121 122 124 125 123 122 120 118 120 123 123 121 120 118 118 117 112 112 115 112 110 108 106 104 103 102 100 99 98 97 97 98 99 97 95 97 98 93 95 103 104 108 113 111 108 106 102 98 93 89 85 78 72 67 63 60 59 57 55 54 52 50 46 42 38 34 31 28 26 23 22 21 20 19 18 17 15 13 11 9 8 9 8 9
126 123 122 125 126 123 122 121 120 121 122 121 120 122 121 119 118 113 112 112 108 107 106 105 104 103 102 100 103 103 99 104 111 105 94 93 101 97 88 90 101 107 113 114 111 109 105 100 97 94 87 80 74 69 65 63 61 58 56 54 53 52 49 45 42 37 34 31 28 27 26 26 26 25 25 24 23 22 19 17 14 11 8 5 5
131 128 128 129 128 125 124 123 123 123 123 121 121 122 123 124 121 116 114 113 112 111 109 107 106 104 103 101 104 105 105 109 102 86 79 86 87 86 92 99 103 111 116 115 112 109 105 103 100 93 82 75 72 69 66 64 62 59 56 55 55 53 49 45 42 36 33 31 29 28 28 28 29 30 30 29 27 26 23 21 19 15 11 8 6
135 135 134 132 131 129 127 125 125 127 126 124 124 125 127 128 125 121 121 119 118 115 112 111 111 108 106 107 111 113 115 107 88 66 63 77 85 93 103 103 106 116 117 115 114 109 105 103 96 85 78 74 72 68 66 64 61 58 55 54 55 53 49 45 40 35 32 30 29 29 29 30 31 31 31 30 28 26 24 22 20 17 14 11 7
138 138 136 134 134 131 129 128 128 127 127 124 126 130 131 132 131 131 129 126 125 122 120 118 115 111 110 115 115 111 108 98 93 82 53 54 74 94 93 96 110 120 118 117 115 109 105 99 90 83 79 76 73 69 67 66 63 60 57 54 53 51 48 44 38 34 31 29 29 29 29 29 30 30 30 29 28 26 24 22 20 18 15 12 10
141 138 136 134 134 134 133 132 131 129 128 127 131 135 137 139 138 137 131 129 130 127 126 122 116 112 111 115 112 104 97 94 102 112 82 50 58 86 90 100 117 122 121 119 114 112 108 99 90 85 79 74 72 70 68 67 64 61 56 53 51 48 45 41 36 32 29 28 28 28 28 28 28 29 29 28 26 25 23 21 20 18 16 14 11
146 142 139 135 133 135 138 137 136 135 133 130 133 138 142 145 142 138 135 136 135 131 128 123 118 117 115 115 113 109 105 108 116 116 118 128 107 109 116 109 116 125 124 121 118 118 112 101 92 84 78 73 71 70 68 66 63 60 55 51 48 45 42 37 33 29 26 26 26 26 27 26 25 26 27 26 25 24 22 21 19 18 16 14 12
152 147 142 139 135 134 137 140 141 141 141 136 137 142 147 151 149 146 146 146 143 139 136 131 126 125 122 118 114 111 113 125 133 128 134 142 109 99 114 104 109 128 128 127 127 124 113 104 97 86 80 74 70 67 66 64 60 57 53 48 44 41 39 34 30 26 22 22 22 23 25 24 23 23 24 24 24 23 22 21 19 18 17 15 12
155 152 148 143 139 137 136 141 146 148 149 148 149 150 152 158 159 156 153 152 154 151 146 140 136 133 128 125 119 115 114 123 138 140 139 128 103 94 101 101 120 137 142 141 132 127 120 112 104 91 80 73 65 61 61 58 53 50 47 44 40 36 34 32 28 24 20 18 17 18 21 21 20 20 21 22 23 23 22 20 19 17 16 14 12
156 156 153 149 145 145 141 144 153 158 160 162 163 161 160 165 167 165 161 160 161 158 153 147 143 139 133 129 127 124 120 113 119 134 137 131 122 107 89 95 119 130 148 148 134 131 130 116 106 93 77 68 60 56 56 51 46 42 39 38 35 30 29 29 27 23 20 15 12 13 16 18 17 16 17 20 21 21 21 19 17 15 14 13 11
159 158 156 154 150 150 149 150 157 166 174 176 176 174 171 172 173 173 171 168 166 162 160 152 146 144 137 131 131 129 129 125 120 130 140 137 133 130 135 150 146 142 160 164 149 144 142 121 109 97 81 67 54 48 48 45 41 37 32 32 29 24 22 24 24 22 20 16 13 10 11 14 15 13 13 15 18 18 19 18 15 13 12 10 10
163 162 160 160 156 156 156 156 161 172 187 189 188 186 183 182 181 181 179 175 173 169 162 154 152 151 144 141 141 139 142 138 132 137 142 143 137 133 151 171 168 171 176 171 163 157 152 142 123 102 82 63 46 37 35 36 33 29 28 27 23 18 17 19 20 18 17 16 14 10 7 8 10 10 9 10 13 14 14 14 13 11 10 9 8
166 168 169 168 165 164 162 162 167 179 191 193 195 196 194 191 188 188 188 181 178 177 169 163 163 159 153 150 147 148 150 145 147 149 146 154 145 131 136 180 188 190 188 176 170 167 163 160 146 111 79 47 30 25 26 27 23 22 24 23 18 12 11 15 17 15 13 12 12 10 5 3 4 5 5 5 7 8 8 9 9 8 8 8 6
175 176 177 174 172 171 169 172 175 182 189 191 198 203 204 200 193 192 193 188 186 183 178 175 172 167 165 162 157 158 156 151 160 161 148 155 160 154 162 183 195 195 193 187 181 178 179 180 175 159 112 356 357 7 17 19 18 20 19 16 13 7 7 12 14 12 11 8 7 6 3 1 359 358 360 0 1 1 2 3 3 4 4 5 4
183 183 180 175 177 180 176 180 185 186 189 193 200 203 207 207 201 197 195 193 194 191 186 183 180 175 175 176 172 167 160 157 166 170 160 160 174 184 181 180 191 197 193 191 193 192 193 194 195 212 248 295 316 334 357 3 13 20 13 6 5 2 4 8 9 9 7 4 2 1 1 359 356 355 354 354 355 355 356 357 358 359 360 1 2
190 187 186 181 181 184 183 186 191 194 195 197 198 198 203 208 206 202 199 197 197 197 193 186 183 182 181 185 184 176 170 164 166 175 177 178 184 194 194 189 192 195 193 197 204 207 206 205 209 226 251 275 296 317 339 350 358 6 3 358 357 357 0 3 4 4 3 0 358 356 357 357 355 353 351 350 351 350 351 352 353 355 356 358 359
200 195 193 190 185 183 189 193 195 200 202 202 201 202 204 204 207 206 203 202 199 198 197 191 189 188 185 186 186 189 188 175 172 179 185 192 193 191 197 201 202 203 200 200 209 219 219 217 220 232 253 269 284 305 324 335 339 342 346 351 353 354 357 358 358 359 357 355 353 351 351 351 351 351 350 349 348 347 347 348 349 351 352 354 356
206 207 204 201 193 186 194 202 201 202 204 208 209 211 211 206 209 211 206 204 202 199 198 196 195 192 189 193 190 193 197 190 188 188 186 191 191 188 199 207 208 210 209 206 210 218 224 231 235 234 244 265 276 287 303 318 322 326 333 342 347 350 352 353 353 352 351 348 347 347 346 345 346 347 347 347 346 346 345 345 346 348 349 350 353
207 211 212 213 210 199 200 205 205 206 206 211 212 212 215 210 209 211 206 205 204 200 197 196 198 196 194 199 197 195 198 199 201 197 193 194 191 195 207 213 214 215 217 218 219 221 223 232 242 241 243 261 274 279 288 301 310 320 328 332 337 343 346 347 345 344 344 343 342 342 341 340 340 342 343 344 344 344 343 343 344 345 345 347 349
210 211 213 216 219 212 209 210 209 209 209 211 212 212 216 210 209 212 208 208 207 201 198 198 199 200 200 203 203 202 202 201 200 200 202 203 199 203 209 215 221 222 222 225 231 232 229 233 245 250 251 259 270 279 285 292 303 314 320 324 328 333 336 338 336 336 337 339 339 337 336 336 336 337 339 340 341 341 341 340 341 341 342 343 346
215 215 214 216 220 218 215 215 213 214 215 214 210 211 215 211 213 216 213 213 212 206 203 203 203 203 205 206 207 208 210 210 207 206 209 209 208 211 212 216 224 227 226 226 232 236 235 240 247 251 254 257 267 282 289 294 301 308 313 316 320 322 326 329 328 328 332 336 336 333 331 331 331 332 333 335 336 337 337 337 337 338 339 341 343
219 218 218 218 220 220 219 219 217 217 219 219 216 214 212 211 213 217 217 217 216 212 210 211 209 208 210 212 213 213 214 217 218 215 215 216 218 219 218 222 226 228 229 229 233 236 236 240 247 251 256 259 266 276 283 289 295 300 306 311 315 317 320 322 323 325 329 331 332 330 327 326 327 329 329 330 332 332 332 333 334 335 337 338 340
225 222 223 224 223 223 222 222 221 221 220 220 222 222 215 211 212 218 222 221 219 218 218 219 218 215 216 219 222 223 220 220 221 220 220 222 225 226 224 226 228 230 233 234 236 237 236 239 245 250 256 260 265 268 274 283 291 298 305 310 314 316 316 318 322 326 328 327 327 328 326 324 325 327 328 328 329 329 329 330 331 332 333 335 337
231 228 226 226 227 229 230 226 224 224 224 223 225 226 222 218 219 223 227 226 224 225 226 227 227 224 224 225 227 229 228 225 224 224 227 229 230 231 229 230 231 233 236 237 237 237 237 240 244 248 253 258 263 268 274 282 289 296 302 306 311 313 316 318 322 325 325 324 325 327 327 326 325 325 325 326 326 326 327 328 328 328 330 332 334
234 233 232 230 228 230 232 232 231 227 225 226 228 228 226 226 226 227 231 231 230 232 231 232 233 231 231 231 232 233 232 230 229 229 232 236 238 239 236 236 238 238 239 240 239 239 239 241 245 249 254 260 264 270 276 281 288 293 297 302 307 312 317 319 320 323 324 324 325 326 328 326 324 322 321 323 323 324 324 325 325 325 327 329 331
237 236 236 235 232 232 233 232 233 233 230 229 230 231 230 231 233 234 237 239 238 237 235 234 236 236 236 235 235 237 236 234 234 234 236 239 243 246 245 245 246 247 249 249 247 246 245 245 247 250 256 261 265 270 276 282 289 293 299 305 308 311 315 316 318 321 322 323 324 325 324 322 320 318 318 320 321 322 322 322 323 323 325 327 328
238 238 238 238 235 233 235 234 233 234 235 235 235 235 235 235 235 236 240 244 245 245 242 240 241 240 240 239 238 239 240 238 238 239 240 243 247 251 252 252 251 251 255 255 252 251 251 251 252 254 258 264 268 274 280 286 293 299 304 308 310 311 314 316 318 318 319 320 321 320 319 317 316 316 316 318 320 321 321 320 321 323 324 325 325
237 238 237 239 239 236 235 236 236 235 235 239 240 239 239 238 237 237 238 241 245 249 250 249 248 245 243 243 243 244 243 243 244 246 246 246 248 251 254 254 254 253 254 255 254 254 256 258 259 260 264 270 275 281 286 291 295 298 301 302 304 307 311 314 314 313 315 316 316 316 316 315 315 314 314 316 318 320 320 319 321 322 322 322 322
235 239 238 237 239 240 238 237 238 238 237 240 242 242 242 241 240 240 242 244 244 248 252 254 253 251 248 246 246 247 248 248 250 252 253 253 254 255 255 255 255 254 254 255 255 256 258 260 263 266 271 275 279 283 287 290 293 295 298 299 300 301 305 309 309 309 312 314 314 315 315 313 313 312 312 314 316 320 322 320 319 320 319 318 320
233 237 242 242 239 238 239 239 239 239 240 241 243 244 245 246 246 245 245 249 250 251 252 254 255 254 252 251 251 252 253 255 256 256 257 259 260 260 259 259 258 257 257 256 257 258 260 261 264 268 270 273 277 281 286 290 293 297 298 296 295 297 301 306 307 310 313 315 316 317 315 312 311 311 313 315 318 324 325 320 317 317 317 317 319
241 237 239 244 244 241 238 238 241 242 242 243 245 247 248 250 254 255 253 254 256 258 257 256 256 255 254 255 256 258 259 259 260 260 260 262 265 266 266 266 264 262 261 260 260 260 261 262 264 266 269 271 275 280 284 288 291 294 294 293 294 299 304 308 311 315 317 316 316 317 318 317 316 316 318 320 323 328 327 319 316 318 318 318 319
246 244 240 241 246 248 243 238 238 243 246 247 246 247 252 255 258 261 262 261 260 261 262 261 259 258 258 257 258 260 261 261 261 263 265 266 269 271 271 271 270 269 267 265 265 266 267 267 267 268 271 274 278 282 285 288 292 296 298 299 303 306 308 311 315 320 320 315 314 317 320 318 316 317 321 322 324 330 331 322 319 321 320 318 318
248 249 246 242 243 249 252 247 242 241 246 251 251 248 248 252 258 262 265 267 266 264 264 264 263 262 261 261 261 261 262 262 261 262 266 269 271 272 273 273 273 272 271 270 270 270 271 272 273 274 275 278 282 284 287 291 294 296 297 299 303 305 307 311 317 323 321 316 315 317 319 316 313 315 319 320 323 332 337 328 322 323 321 319 318
238 245 248 248 246 245 248 251 251 247 244 247 252 254 251 248 252 257 261 265 268 268 268 269 268 267 266 265 265 265 267 268 267 263 261 263 266 269 269 270 271 272 272 272 272 272 273 275 276 276 278 281 283 285 288 291 291 292 293 295 299 301 302 307 314 320 320 317 315 315 319 320 315 316 320 320 322 331 337 333 329 325 323 322 322
219 226 235 245 250 248 245 246 251 255 252 248 247 250 252 250 248 250 254 259 263 266 269 270 270 271 270 269 268 268 269 272 273 272 266 260 260 264 267 268 270 271 273 274 274 273 273 275 276 277 279 282 283 284 286 288 288 289 290 292 294 295 298 303 309 315 318 318 315 314 319 324 318 317 321 319 320 328 334 336 335 328 325 327 326
229 226 227 234 240 243 243 241 244 251 257 258 255 251 250 250 250 249 251 254 258 261 264 267 268 270 271 271 270 270 269 269 271 274 274 270 263 261 264 269 271 271 272 273 274 274 274 275 276 278 280 282 282 284 284 285 285 286 287 289 290 291 295 300 305 310 315 316 313 311 315 320 316 315 318 317 318 327 332 335 337 332 327 329 329
244 237 234 235 236 238 240 242 244 246 248 253 257 256 250 247 248 251 252 254 256 259 262 264 266 267 268 270 271 272 272 270 268 270 274 276 274 266 261 263 268 270 270 269 271 273 274 274 276 278 279 281 282 283 284 283 283 283 284 286 287 290 294 298 301 306 310 310 307 306 309 315 314 313 318 318 318 325 330 333 336 331 326 327 328
247 240 238 240 240 241 243 245 248 250 250 250 255 259 257 251 247 248 250 254 256 259 261 263 265 267 267 267 269 271 273 273 272 270 270 274 277 276 269 261 260 265 268 270 271 272 272 274 275 276 276 277 278 279 279 280 280 282 283 283 284 289 291 293 296 301 303 301 301 303 306 312 315 315 317 317 316 320 325 329 330 327 323 322 322
255 250 247 246 246 246 246 247 249 250 251 252 255 259 262 261 258 252 250 251 253 256 259 261 263 266 267 267 268 269 271 273 275 275 273 271 273 276 276 271 264 261 263 268 271 272 273 274 275 276 276 275 275 275 275 276 278 281 282 283 287 292 292 292 296 299 297 296 301 303 303 309 314 314 314 314 313 313 316 319 320 319 317 316 315
254 251 249 250 251 250 250 252 255 255 255 255 255 256 260 263 265 264 260 257 256 255 256 258 261 264 266 268 269 270 271 272 272 273 274 273 272 273 276 277 275 269 265 268 271 273 274 274 274 274 274 274 274 274 275 276 278 280 280 283 289 291 292 294 298 298 295 296 302 302 301 307 312 311 311 312 310 307 308 309 310 310 311 311 311
251 248 247 249 250 251 252 254 256 258 260 261 259 258 259 260 263 266 267 266 264 262 260 260 261 263 265 268 270 271 272 273 271 270 270 271 272 273 273 275 276 274 273 275 276 276 277 277 275 273 272 271 271 271 272 274 276 278 281 286 290 291 291 294 296 295 294 298 304 301 299 304 310 310 312 314 313 311 311 310 310 309 310 310 310
Height
3223 3223 3224 3224 3225 3225 3226 3227 3228 3228 3229 3230 3231 3232 3232 3233 3233 3233 3233 3234 3234 3234 3235 3236 3236 3237 3237 3237 3237 3237 3238 3238 3239 3239 3239 3240 3240 3240 3240 3240 3241 3241 3241 3241 3241 3241 3241 3241 3242 3242 3242 3242 3243 3243 3243 3244 3244 3245 3245 3246 3246 3246 3246 3246 3246 3245 3245 3244 3244 3243 3242 3242 3241 3240 3240 3239 3238 3237 3236 3235 3234 3233 3232 3231 3230
3224 3225 3226 3226 3226 3227 3227 3228 3229 3230 3230 3231 3233 3233 3233 3234 3234 3234 3235 3235 3236 3236 3236 3237 3237 3238 3238 3238 3238 3238 3239 3239 3240 3240 3240 3241 3241 3241 3241 3241 3241 3241 3241 3242 3242 3242 3242 3243 3243 3243 3244 3244 3244 3245 3245 3246 3246 3247 3247 3248 3248 3248 3248 3248 3247 3247 3246 3245 3245 3244 3243 3243 3242 3241 3240 3240 3239 3238 3237 3236 3235 3234 3233 3232 3230
3225 3226 3228 3228 3228 3229 3229 3229 3230 3231 3232 3233 3234 3234 3234 3234 3235 3236 3236 3237 3238 3237 3237 3238 3238 3239 3239 3239 3239 3239 3240 3240 3241 3241 3241 3241 3242 3242 3242 3242 3242 3242 3242 3243 3243 3243 3244 3244 3244 3245 3245 3246 3246 3247 3247 3248 3248 3249 3249 3249 3249 3249 3249 3249 3248 3248 3247 3246 3246 3245 3244 3244 3243 3242 3241 3240 3240 3239 3238 3237 3236 3235 3233 3232 3231
3225 3226 3228 3229 3230 3230 3231 3231 3232 3233 3233 3234 3234 3235 3235 3236 3236 3237 3238 3239 3238 3238 3238 3239 3240 3240 3240 3240 3241 3240 3241 3241 3241 3242 3242 3242 3242 3243 3243 3243 3243 3243 3243 3244 3244 3245 3245 3246 3246 3247 3247 3247 3248 3249 3249 3250 3250 3251 3251 3251 3251 3251 3250 3250 3249 3249 3248 3247 3247 3246 3245 3245 3244 3243 3242 3241 3240 3239 3238 3237 3236 3235 3234 3233 3231
3225 3226 3227 3228 3229 3231 3232 3232 3232 3233 3234 3234 3234 3235 3236 3236 3237 3239 3239 3239 3238 3239 3239 3240 3241 3241 3240 3241 3242 3242 3242 3241 3242 3242 3242 3243 3243 3243 3244 3244 3244 3244 3245 3245 3246 3246 3247 3247 3248 3248 3249 3249 3250 3251 3251 3252 3252 3253 3253 3253 3252 3252 3251 3251 3250 3250 3249 3248 3248 3247 3246 3245 3244 3244 3243 3242 3241 3240 3239 3238 3237 3236 3234 3233 3232
3226 3227 3227 3228 3229 3230 3232 3232 3232 3233 3233 3234 3234 3235 3236 3237 3238 3240 3240 3238 3238 3240 3241 3242 3243 3243 3242 3243 3243 3243 3243 3243 3243 3244 3243 3244 3244 3244 3245 3245 3245 3245 3246 3247 3247 3248 3248 3249 3249 3250 3250 3251 3252 3253 3254 3254 3254 3254 3254 3254 3253 3253 3252 3252 3251 3251 3250 3249 3249 3248 3247 3246 3245 3244 3243 3242 3241 3240 3239 3238 3237 3236 3235 3234 3232
3227 3227 3228 3229 3229 3230 3231 3232 3232 3233 3233 3234 3235 3235 3237 3238 3239 3240 3239 3238 3240 3242 3242 3242 3243 3244 3244 3244 3244 3244 3244 3245 3245 3245 3245 3245 3245 3246 3246 3246 3247 3247 3247 3248 3249 3249 3250 3250 3251 3252 3252 3253 3254 3255 3255 3256 3256 3255 3255 3255 3254 3254 3254 3253 3252 3252 3251 3250 3250 3249 3248 3247 3246 3245 3244 3243 3242 3241 3240 3239 3238 3237 3235 3234 3232
3227 3228 3229 3229 3230 3231 3232 3232 3233 3233 3234 3235 3236 3236 3237 3238 3239 3240 3240 3240 3242 3242 3243 3243 3244 3245 3245 3245 3245 3246 3246 3246 3246 3246 3246 3246 3247 3247 3247 3248 3248 3248 3249 3250 3250 3251 3252 3252 3253 3254 3254 3255 3256 3257 3257 3257 3257 3256 3256 3256 3256 3255 3255 3254 3253 3253 3252 3251 3250 3249 3248 3247 3246 3245 3244 3243 3242 3241 3240 3239 3238 3237 3236 3234 3233
3228 3228 3229 3230 3231 3232 3232 3233 3234 3235 3235 3236 3237 3238 3238 3239 3240 3241 3241 3242 3243 3243 3244 3244 3245 3246 3246 3246 3246 3247 3247 3247 3247 3248 3248 3248 3248 3248 3249 3249 3249 3250 3250 3251 3252 3252 3253 3254 3255 3256 3257 3257 3258 3258 3258 3258 3258 3257 3257 3257 3257 3256 3256 3255 3254 3254 3253 3252 3251 3250 3249 3248 3247 3245 3244 3243 3242 3241 3240 3239 3238 3237 3236 3234 3233
3228 3229 3230 3231 3231 3232 3233 3234 3235 3236 3236 3237 3238 3239 3239 3240 3240 3241 3243 3243 3243 3244 3245 3245 3245 3246 3247 3247 3247 3247 3248 3248 3248 3249 3249 3249 3250 3250 3250 3251 3251 3251 3252 3252 3253 3253 3255 3256 3257 3258 3258 3259 3259 3259 3259 3259 3259 3259 3259 3258 3258 3257 3257 3256 3256 3255 3254 3253 3252 3251 3249 3248 3247 3246 3245 3243 3242 3241 3240 3239 3238 3237 3236 3235 3233
3229 3230 3230 3231 3232 3233 3234 3234 3235 3236 3237 3238 3238 3239 3240 3241 3241 3242 3243 3244 3244 3245 3245 3246 3246 3247 3247 3248 3248 3248 3249 3249 3249 3250 3250 3250 3251 3251 3251 3252 3253 3253 3254 3254 3254 3255 3257 3258 3259 3260 3260 3260 3260 3260 3260 3260 3260 3260 3260 3259 3259 3258 3258 3257 3257 3256 3255 3254 3253 3251 3250 3249 3247 3246 3245 3244 3243 3242 3241 3239 3238 3237 3236 3235 3233
3229 3230 3231 3232 3232 3233 3234 3235 3236 3237 3238 3238 3239 3240 3241 3241 3242 3242 3243 3244 3245 3245 3246 3247 3247 3248 3248 3248 3249 3249 3249 3250 3250 3250 3251 3252 3253 3252 3252 3254 3255 3255 3255 3256 3256 3257 3258 3260 3261 3261 3261 3261 3261 3261 3261 3261 3261 3261 3261 3260 3260 3259 3259 3258 3258 3257 3256 3255 3253 3252 3251 3249 3248 3247 3245 3244 3243 3242 3241 3240 3238 3237 3236 3234 3233
3229 3230 3231 3232 3233 3234 3235 3236 3236 3237 3238 3239 3239 3240 3241 3242 3242 3243 3243 3244 3245 3246 3247 3247 3248 3248 3249 3249 3250 3250 3250 3251 3251 3251 3252 3253 3254 3254 3254 3256 3256 3256 3257 3258 3259 3259 3260 3261 3262 3262 3262 3263 3263 3262 3262 3262 3262 3262 3262 3261 3261 3260 3260 3259 3258 3257 3257 3255 3254 3253 3251 3250 3248 3247 3246 3244 3243 3242 3241 3240 3238 3237 3235 3234 3232
3230 3231 3232 3232 3233 3234 3235 3236 3237 3237 3238 3239 3240 3241 3242 3242 3243 3244 3244 3245 3245 3246 3247 3248 3248 3249 3250 3250 3250 3251 3251 3251 3251 3253 3255 3255 3255 3256 3256 3257 3258 3258 3259 3260 3260 3261 3262 3263 3263 3263 3264 3264 3264 3264 3264 3263 3263 3263 3262 3262 3262 3261 3261 3260 3259 3258 3257 3256 3255 3253 3252 3250 3249 3247 3246 3245 3244 3243 3241 3240 3238 3237 3235 3234 3232
3230 3231 3232 3233 3233 3234 3235 3236 3237 3238 3239 3240 3241 3242 3242 3243 3243 3244 3245 3245 3246 3247 3248 3249 3249 3249 3250 3251 3251 3252 3252 3251 3252 3255 3257 3256 3257 3257 3258 3258 3259 3260 3261 3262 3262 3262 3263 3264 3264 3265 3265 3266 3265 3266 3265 3265 3265 3264 3263 3263 3263 3262 3261 3261 3260 3259 3258 3256 3255 3254 3252 3251 3249 3248 3247 3246 3244 3243 3242 3240 3239 3237 3236 3234 3232
3230 3231 3232 3233 3234 3234 3235 3236 3237 3238 3239 3240 3241 3242 3243 3243 3244 3245 3245 3246 3247 3248 3248 3249 3250 3250 3251 3251 3251 3252 3253 3253 3255 3257 3258 3259 3259 3259 3260 3260 3261 3262 3263 3263 3263 3264 3264 3265 3266 3266 3266 3267 3267 3267 3266 3266 3266 3265 3265 3264 3264 3263 3262 3261 3260 3259 3258 3257 3256 3255 3253 3252 3250 3249 3248 3246 3245 3244 3242 3241 3239 3238 3236 3234 3232
3230 3231 3232 3233 3234 3234 3235 3236 3237 3238 3239 3240 3241 3242 3243 3244 3244 3245 3246 3246 3247 3248 3249 3250 3250 3251 3252 3252 3252 3252 3253 3254 3256 3258 3258 3260 3261 3261 3261 3262 3263 3264 3264 3264 3265 3266 3266 3266 3267 3267 3267 3268 3268 3268 3267 3267 3267 3266 3266 3265 3264 3264 3263 3262 3261 3260 3259 3258 3257 3255 3254 3253 3252 3250 3249 3247 3246 3244 3243 3241 3240 3238 3236 3233 3231
3231 3231 3232 3233 3234 3235 3235 3237 3237 3238 3240 3241 3242 3243 3243 3244 3245 3246 3246 3247 3248 3249 3249 3250 3251 3252 3252 3253 3253 3253 3254 3255 3256 3258 3259 3260 3261 3262 3262 3263 3264 3265 3265 3266 3267 3267 3267 3267 3268 3268 3268 3269 3268 3269 3268 3268 3268 3267 3267 3266 3265 3264 3264 3263 3262 3261 3260 3258 3257 3256 3255 3254 3253 3251 3249 3248 3246 3245 3243 3242 3240 3238 3236 3234 3232
3231 3231 3232 3233 3234 3235 3235 3236 3237 3238 3240 3241 3242 3243 3244 3244 3245 3246 3247 3247 3248 3249 3250 3250 3251 3252 3253 3253 3254 3254 3255 3256 3256 3257 3259 3260 3261 3262 3264 3264 3265 3266 3266 3266 3267 3268 3268 3268 3268 3269 3269 3269 3269 3270 3269 3269 3268 3268 3267 3267 3266 3265 3264 3263 3262 3261 3260 3259 3258 3257 3256 3255 3253 3252 3250 3249 3247 3245 3244 3242 3240 3239 3237 3235 3233
3231 3232 3232 3233 3234 3235 3235 3236 3237 3238 3239 3240 3241 3242 3243 3244 3245 3246 3247 3248 3249 3250 3250 3251 3251 3252 3253 3254 3254 3255 3256 3257 3257 3258 3259 3260 3262 3263 3264 3265 3266 3266 3267 3267 3268 3269 3269 3269 3269 3269 3269 3269 3270 3271 3270 3270 3269 3269 3268 3267 3267 3266 3265 3264 3263 3262 3261 3260 3259 3258 3257 3255 3254 3252 3251 3249 3248 3246 3244 3243 3241 3240 3238 3236 3234
3231 3232 3233 3233 3234 3235 3235 3236 3237 3238 3239 3240 3241 3242 3243 3244 3245 3246 3247 3248 3249 3250 3251 3252 3252 3253 3254 3254 3255 3256 3257 3257 3258 3259 3260 3260 3262 3263 3265 3265 3266 3267 3267 3268 3269 3269 3270 3270 3270 3270 3270 3270 3271 3271 3271 3271 3270 3270 3269 3268 3267 3267 3266 3265 3264 3263 3262 3261 3260 3258 3257 3256 3255 3253 3252 3250 3248 3247 3245 3244 3242 3240 3239 3237 3234
3231 3232 3233 3233 3234 3235 3236 3236 3237 3238 3239 3240 3241 3242 3243 3244 3245 3246 3247 3249 3249 3250 3251 3252 3253 3254 3254 3255 3256 3256 3257 3258 3258 3260 3260 3261 3261 3263 3265 3266 3267 3267 3268 3268 3269 3269 3270 3270 3270 3270 3270 3271 3271 3271 3271 3271 3270 3270 3269 3268 3268 3268 3267 3266 3265 3264 3263 3261 3260 3259 3258 3256 3255 3253 3252 3251 3249 3247 3246 3244 3243 3241 3239 3237 3235
3231 3232 3233 3234 3234 3235 3236 3237 3237 3238 3239 3240 3241 3242 3243 3244 3245 3246 3247 3248 3249 3250 3251 3252 3253 3254 3254 3255 3256 3257 3258 3259 3259 3260 3261 3262 3262 3263 3265 3266 3267 3267 3268 3269 3269 3270 3270 3271 3271 3271 3271 3271 3271 3272 3272 3271 3271 3270 3270 3269 3269 3268 3268 3267 3265 3264 3263 3262 3260 3259 3258 3257 3255 3254 3253 3251 3250 3248 3246 3245 3243 3241 3239 3237 3235
3231 3232 3233 3234 3234 3235 3236 3237 3238 3239 3239 3240 3241 3242 3243 3244 3245 3246 3247 3248 3249 3250 3251 3252 3253 3254 3254 3255 3256 3257 3258 3259 3260 3260 3261 3262 3263 3263 3264 3265 3267 3267 3268 3269 3270 3270 3271 3271 3271 3272 3272 3272 3272 3272 3272 3272 3272 3271 3270 3270 3270 3269 3268 3267 3266 3264 3263 3262 3261 3259 3258 3257 3256 3254 3253 3251 3250 3248 3247 3245 3243 3241 3240 3237 3235
3231 3232 3233 3234 3235 3235 3236 3237 3238 3239 3240 3240 3241 3242 3243 3244 3245 3246 3247 3248 3249 3250 3251 3252 3253 3254 3255 3255 3255 3256 3258 3259 3260 3260 3261 3262 3263 3263 3264 3265 3266 3267 3268 3269 3269 3270 3271 3271 3272 3272 3272 3272 3272 3272 3272 3272 3272 3271 3271 3271 3270 3270 3269 3267 3266 3264 3263 3262 3261 3260 3258 3257 3256 3254 3253 3252 3250 3249 3247 3245 3243 3242 3240 3238 3236
3231 3232 3232 3233 3234 3235 3236 3237 3238 3239 3240 3240 3241 3242 3243 3244 3245 3246 3247 3248 3249 3250 3251 3252 3253 3254 3255 3255 3256 3257 3257 3258 3259 3260 3261 3262 3262 3263 3264 3265 3265 3266 3267 3268 3269 3270 3270 3271 3272 3272 3272 3272 3272 3272 3271 3271 3271 3271 3272 3271 3270 3270 3268 3267 3266 3265 3263 3262 3261 3260 3259 3257 3256 3255 3253 3252 3250 3249 3247 3245 3243 3242 3240 3238 3236
3231 3232 3232 3233 3234 3235 3236 3237 3238 3239 3240 3241 3241 3242 3243 3244 3244 3245 3247 3248 3249 3250 3251 3252 3253 3254 3254 3255 3256 3257 3257 3258 3258 3259 3260 3261 3262 3263 3264 3265 3265 3266 3267 3268 3269 3269 3270 3271 3271 3272 3272 3272 3272 3272 3271 3271 3271 3271 3271 3271 3270 3269 3268 3267 3265 3264 3264 3262 3261 3260 3259 3257 3256 3254 3253 3251 3250 3248 3247 3245 3243 3241 3239 3237 3235
3231 3231 3232 3233 3234 3235 3236 3237 3238 3239 3240 3241 3241 3242 3243 3243 3244 3245 3247 3248 3248 3249 3250 3251 3252 3253 3254 3255 3255 3256 3257 3258 3258 3258 3259 3260 3262 3263 3264 3264 3265 3265 3266 3267 3268 3269 3269 3270 3270 3271 3272 3271 3271 3272 3272 3271 3271 3270 3270 3270 3269 3269 3267 3266 3265 3264 3263 3262 3261 3260 3259 3257 3256 3254 3253 3251 3250 3248 3246 3244 3243 3241 3239 3237 3235
3231 3231 3232 3233 3234 3235 3236 3237 3238 3239 3240 3241 3241 3242 3243 3243 3244 3245 3246 3247 3248 3249 3250 3251 3252 3253 3254 3254 3255 3256 3257 3258 3258 3259 3260 3260 3261 3262 3263 3264 3264 3265 3266 3267 3268 3268 3269 3269 3269 3270 3271 3271 3271 3271 3271 3271 3270 3270 3269 3268 3268 3268 3267 3266 3265 3264 3263 3262 3261 3259 3258 3257 3255 3254 3253 3251 3249 3248 3246 3244 3242 3241 3239 3237 3235
3230 3231 3232 3233 3234 3235 3236 3237 3238 3239 3240 3240 3241 3242 3243 3243 3244 3245 3246 3247 3248 3249 3250 3251 3251 3252 3253 3254 3255 3256 3256 3257 3258 3258 3259 3260 3261 3261 3262 3263 3264 3265 3266 3267 3267 3267 3268 3269 3268 3269 3270 3270 3270 3270 3270 3270 3270 3269 3269 3268 3267 3267 3267 3266 3265 3264 3263 3262 3260 3259 3257 3256 3255 3253 3252 3250 3249 3247 3246 3244 3242 3240 3238 3236 3234
3230 3231 3231 3233 3234 3235 3236 3237 3238 3238 3239 3240 3241 3242 3243 3243 3244 3245 3246 3247 3248 3249 3250 3250 3251 3252 3253 3254 3255 3256 3256 3257 3257 3258 3259 3259 3260 3261 3262 3262 3263 3264 3265 3266 3266 3266 3268 3268 3267 3268 3269 3269 3269 3269 3269 3269 3269 3269 3268 3268 3267 3266 3266 3265 3264 3263 3262 3261 3259 3258 3256 3255 3254 3253 3251 3250 3248 3247 3245 3243 3241 3240 3238 3236 3234
3229 3230 3231 3232 3233 3234 3235 3236 3237 3238 3239 3240 3241 3242 3243 3243 3244 3245 3246 3247 3248 3249 3249 3250 3251 3252 3252 3253 3254 3255 3256 3257 3257 3258 3258 3259 3260 3260 3261 3261 3262 3263 3263 3264 3264 3265 3266 3267 3266 3267 3268 3268 3269 3269 3268 3268 3268 3268 3267 3266 3265 3265 3264 3264 3263 3262 3260 3259 3258 3257 3255 3254 3253 3252 3250 3249 3247 3246 3244 3242 3241 3239 3237 3235 3233
3228 3229 3230 3231 3232 3233 3234 3235 3236 3237 3238 3239 3240 3242 3242 3243 3244 3245 3246 3246 3247 3248 3249 3250 3251 3252 3252 3253 3254 3254 3255 3256 3257 3258 3258 3259 3259 3260 3260 3261 3261 3262 3262 3263 3263 3264 3265 3265 3265 3266 3266 3267 3267 3267 3267 3267 3266 3266 3266 3265 3264 3263 3262 3262 3261 3260 3259 3258 3257 3256 3254 3252 3251 3250 3249 3248 3246 3245 3243 3241 3239 3238 3236 3234 3232
3228 3229 3230 3231 3232 3233 3234 3234 3235 3237 3238 3239 3240 3241 3242 3243 3244 3244 3245 3246 3247 3248 3249 3250 3251 3251 3252 3253 3253 3254 3255 3256 3256 3257 3258 3258 3259 3259 3259 3260 3260 3260 3261 3261 3262 3262 3263 3263 3264 3265 3265 3265 3266 3266 3266 3266 3265 3265 3264 3264 3263 3261 3260 3259 3259 3259 3257 3256 3255 3254 3253 3251 3249 3249 3248 3246 3245 3243 3242 3240 3238 3236 3235 3233 3231
3227 3228 3229 3230 3231 3232 3233 3234 3235 3236 3237 3238 3239 3241 3242 3243 3243 3244 3245 3246 3247 3247 3248 3249 3250 3251 3252 3253 3253 3254 3254 3255 3256 3257 3257 3258 3258 3259 3259 3259 3259 3259 3260 3260 3260 3261 3261 3262 3263 3263 3263 3264 3264 3264 3264 3264 3264 3264 3263 3262 3262 3261 3259 3257 3256 3257 3256 3254 3253 3252 3251 3250 3248 3247 3246 3245 3243 3242 3240 3239 3237 3235 3234 3232 3230
3226 3227 3228 3229 3230 3231 3232 3233 3234 3235 3236 3238 3239 3240 3241 3242 3243 3244 3245 3245 3246 3247 3248 3249 3250 3251 3251 3252 3253 3253 3254 3255 3256 3256 3257 3257 3258 3258 3258 3259 3259 3259 3259 3259 3260 3260 3260 3261 3261 3262 3262 3262 3262 3263 3262 3262 3262 3262 3261 3260 3260 3259 3258 3257 3255 3254 3254 3253 3252 3251 3249 3248 3247 3245 3244 3243 3242 3240 3238 3237 3235 3234 3232 3231 3229
3225 3226 3227 3228 3229 3230 3231 3233 3234 3235 3236 3237 3238 3239 3240 3241 3243 3243 3244 3245 3246 3247 3248 3248 3249 3250 3251 3251 3252 3253 3253 3254 3255 3256 3256 3257 3257 3257 3258 3258 3258 3258 3258 3259 3259 3259 3259 3260 3260 3260 3260 3261 3261 3261 3261 3261 3261 3260 3259 3258 3257 3256 3256 3255 3253 3252 3252 3251 3250 3249 3248 3246 3245 3244 3242 3241 3240 3239 3237 3235 3234 3232 3231 3229 3228
3224 3225 3226 3227 3228 3229 3231 3232 3233 3234 3235 3236 3237 3238 3239 3241 3242 3243 3244 3244 3245 3246 3247 3248 3248 3249 3250 3251 3251 3252 3253 3254 3254 3255 3256 3256 3256 3257 3257 3257 3257 3258 3258 3258 3258 3258 3258 3259 3259 3259 3259 3259 3259 3260 3260 3259 3259 3258 3258 3257 3256 3255 3254 3253 3252 3250 3250 3249 3248 3247 3246 3244 3243 3242 3241 3240 3238 3237 3235 3233 3232 3230 3229 3228 3226
3224 3224 3225 3226 3227 3228 3230 3231 3232 3233 3234 3235 3236 3237 3238 3239 3241 3242 3243 3244 3245 3246 3246 3247 3248 3248 3249 3250 3250 3251 3252 3253 3254 3254 3255 3255 3255 3256 3256 3256 3257 3257 3257 3257 3257 3257 3257 3258 3258 3258 3258 3258 3258 3258 3258 3258 3257 3256 3256 3255 3254 3253 3253 3252 3251 3249 3248 3247 3246 3245 3244 3242 3241 3240 3239 3238 3237 3236 3233 3231 3230 3229 3227 3226 3225
3223 3224 3224 3225 3226 3227 3229 3230 3231 3232 3233 3234 3235 3236 3238 3238 3239 3241 3242 3243 3244 3245 3246 3246 3247 3248 3248 3249 3250 3250 3251 3252 3253 3253 3254 3254 3254 3255 3255 3255 3255 3256 3256 3256 3256 3256 3256 3257 3257 3257 3257 3257 3257 3257 3256 3256 3255 3254 3254 3253 3252 3251 3251 3250 3249 3248 3246 3244 3242 3241 3240 3239 3238 3238 3237 3236 3235 3234 3232 3230 3228 3227 3225 3224 3223
3223 3224 3224 3224 3225 3226 3228 3229 3230 3231 3232 3233 3234 3236 3237 3238 3239 3240 3241 3242 3243 3244 3244 3245 3246 3247 3247 3248 3248 3249 3250 3251 3252 3252 3252 3253 3253 3254 3254 3254 3254 3254 3255 3255 3255 3255 3255 3255 3255 3255 3255 3255 3255 3255 3255 3254 3253 3253 3252 3250 3249 3249 3248 3247 3247 3246 3244 3242 3241 3240 3238 3236 3234 3234 3234 3233 3233 3232 3230 3228 3226 3225 3224 3223 3221
3221 3222 3224 3224 3224 3225 3226 3228 3229 3230 3231 3232 3233 3235 3236 3237 3238 3239 3240 3241 3242 3242 3243 3244 3245 3245 3246 3247 3247 3248 3249 3250 3250 3251 3251 3252 3252 3252 3253 3253 3253 3253 3253 3253 3254 3254 3254 3254 3254 3254 3254 3254 3254 3254 3253 3252 3251 3250 3249 3247 3246 3245 3244 3244 3244 3244 3242 3240 3239 3239 3237 3235 3232 3231 3231 3230 3230 3230 3229 3226 3225 3224 3222 3221 3220
3222 3222 3222 3223 3224 3225 3225 3226 3228 3229 3230 3231 3232 3234 3235 3236 3237 3238 3238 3239 3240 3241 3241 3242 3243 3244 3245 3245 3246 3246 3247 3248 3249 3249 3250 3250 3251 3251 3251 3251 3252 3252 3252 3252 3252 3252 3252 3252 3252 3252 3252 3252 3252 3252 3251 3251 3250 3248 3247 3246 3244 3243 3242 3241 3241 3241 3240 3238 3237 3237 3237 3235 3232 3230 3229 3228 3227 3228 3227 3225 3223 3222 3221 3220 3219
3218 3221 3222 3222 3223 3224 3224 3225 3225 3227 3229 3230 3231 3232 3234 3235 3236 3236 3237 3237 3238 3239 3239 3240 3241 3242 3243 3243 3244 3244 3245 3245 3246 3247 3248 3249 3249 3249 3250 3250 3250 3250 3250 3250 3251 3251 3251 3250 3250 3250 3250 3251 3251 3250 3250 3249 3248 3247 3246 3245 3244 3242 3240 3239 3239 3239 3238 3236 3234 3234 3234 3233 3231 3229 3228 3227 3225 3225 3225 3224 3222 3221 3219 3218 3217
3209 3214 3218 3220 3221 3223 3223 3224 3224 3225 3226 3228 3229 3230 3231 3233 3234 3234 3235 3235 3236 3236 3237 3238 3239 3239 3240 3241 3242 3242 3243 3243 3244 3244 3245 3246 3247 3247 3247 3248 3248 3248 3248 3249 3249 3249 3249 3249 3248 3248 3249 3249 3249 3249 3248 3247 3246 3245 3244 3243 3242 3240 3239 3238 3237 3236 3236 3234 3232 3230 3231 3231 3229 3227 3227 3225 3224 3224 3223 3222 3221 3219 3218 3217 3216
3213 3214 3215 3216 3218 3219 3220 3221 3222 3223 3223 3224 3226 3227 3228 3229 3231 3232 3232 3233 3233 3233 3234 3235 3236 3236 3237 3238 3239 3240 3241 3241 3242 3242 3242 3243 3244 3245 3245 3246 3246 3246 3246 3246 3247 3247 3247 3247 3246 3246 3247 3247 3246 3246 3246 3245 3244 3243 3242 3241 3240 3238 3237 3236 3235 3235 3234 3233 3231 3228 3228 3229 3227 3226 3225 3223 3222 3222 3222 3220 3219 3218 3216 3216 3214
3215 3214 3214 3214 3214 3215 3216 3217 3217 3219 3220 3220 3220 3222 3224 3226 3227 3228 3229 3230 3230 3230 3231 3232 3232 3233 3234 3235 3235 3236 3237 3238 3240 3240 3240 3239 3240 3241 3242 3243 3243 3243 3244 3244 3244 3245 3244 3244 3244 3244 3244 3244 3244 3243 3243 3242 3241 3240 3239 3238 3237 3236 3235 3234 3233 3233 3232 3232 3230 3227 3226 3227 3226 3224 3223 3221 3219 3219 3220 3218 3218 3217 3216 3215 3214
3208 3209 3211 3211 3212 3212 3213 3213 3214 3215 3217 3217 3217 3218 3220 3222 3223 3225 3226 3227 3227 3227 3228 3229 3229 3230 3231 3231 3232 3233 3234 3235 3236 3237 3238 3238 3237 3237 3238 3240 3240 3240 3240 3241 3242 3242 3242 3241 3241 3241 3241 3241 3241 3240 3240 3239 3238 3237 3236 3235 3234 3234 3233 3232 3231 3231 3231 3230 3229 3226 3224 3224 3224 3222 3221 3220 3217 3217 3217 3217 3216 3216 3215 3214 3213
3205 3207 3208 3209 3209 3210 3210 3210 3211 3212 3214 3216 3217 3217 3218 3219 3220 3221 3222 3223 3224 3224 3225 3225 3226 3226 3227 3228 3229 3229 3230 3231 3232 3233 3235 3235 3235 3234 3234 3235 3236 3236 3237 3238 3238 3239 3239 3239 3238 3238 3238 3238 3238 3237 3237 3236 3235 3235 3233 3232 3232 3231 3230 3229 3229 3229 3228 3227 3227 3224 3221 3221 3221 3219 3218 3218 3216 3214 3215 3216 3215 3214 3214 3213 3212
3199 3201 3203 3205 3206 3207 3208 3208 3208 3209 3211 3212 3213 3214 3215 3216 3217 3219 3220 3220 3220 3221 3221 3222 3222 3223 3223 3224 3225 3226 3226 3228 3229 3230 3230 3231 3231 3231 3231 3231 3232 3232 3233 3234 3234 3235 3235 3235 3235 3235 3234 3234 3234 3234 3233 3233 3232 3232 3230 3229 3230 3229 3227 3225 3225 3225 3224 3225 3225 3223 3219 3218 3219 3218 3216 3216 3214 3213 3213 3213 3213 3212 3212 3211 3210
3193 3195 3197 3199 3201 3202 3204 3204 3205 3206 3207 3208 3209 3210 3211 3212 3213 3214 3215 3216 3217 3218 3218 3219 3219 3219 3220 3221 3222 3222 3223 3224 3225 3226 3226 3226 3226 3227 3228 3228 3228 3228 3229 3230 3231 3231 3231 3230 3230 3230 3230 3230 3230 3230 3229 3229 3229 3228 3227 3227 3227 3226 3224 3223 3223 3221 3220 3221 3222 3220 3217 3216 3216 3215 3214 3213 3212 3211 3210 3210 3210 3209 3209 3208 3208